Voltar ao catálogo

COSMOS 1375 DEB

AtivoLEO
NORAD 16386·DEBRIS·🇷🇺 Russia

Lançado Jun 6, 1982 de Plesetsk Cosmodrome

Loading…

Próximas Passagens (próximas 24 horas)

TLE

AtualizadoSource: Space-Track

Época: Sep 14, 2026, 06:36 UTC

1 16386U 82055AA  26257.27554697 -.00000041  00000-0  43673-4 0  9994
2 16386  65.8364 161.9449 0051943 298.2419 146.4003 13.69761239214461

Acompanhe COSMOS 1375 DEB em tempo real com AllMySat

Download on the App Store